Preview of NWS' New Version of Forecast
This preview is not operational and should not be used for support decisions.

Regional Weather Roundup (RWR)

Issued by National Weather Service (NWS)

                            
000
ASUS44 KMEG 211500
RWRTN 
TENNESSEE HOURLY STATE WEATHER ROUNDUP
NATIONAL WEATHER SERVICE MEMPHIS TN
1000 AM CDT SAT SEP 21 2019

TNZ002-004-019-021-049-052-054-088>092-211600-
WEST TENNESSEE
  
CITY           SKY/WX    TMP DP  RH WIND       PRES   REMARKS
MEMPHIS INTL   FAIR      82  59  45 S9        30.24R                  
NWS MEMPHIS      N/A     81 N/A N/A MISG        N/A                   
JACKSON        FAIR      80  61  52 S10       30.26S                  
DYERSBURG      FAIR      80  62  54 VRB6      30.25R                  
$$

TNZ008-025-027-028-033-062-065-066-211600-
NORTH MIDDLE TENNESSEE
  
CITY           SKY/WX    TMP DP  RH WIND       PRES   REMARKS
NASHVILLE      PTSUNNY   81  53  37 S8        30.30S                  
CLARKSVILLE    FAIR      79  58  48 S8        30.27S                  
SMYRNA         FAIR      80  58  46 S7        30.31S                  
CROSSVILLE     FAIR      74  52  46 SW7       30.38R                  
$$

TNZ061-075-076-078-094-096-097-211600-
SOUTH MIDDLE TENNESSEE
  
CITY           SKY/WX    TMP DP  RH WIND       PRES   REMARKS
$$

TNZ017-018-042-046-047-211600-
NORTHEAST TENNESSEE
  
CITY           SKY/WX    TMP DP  RH WIND       PRES   REMARKS
TRI CITIES     FAIR      73  61  65 CALM      30.37S                  
$$

TNZ012-013-036-069-073-074-211600-
CENTRAL EAST TENNESSEE
  
CITY           SKY/WX    TMP DP  RH WIND       PRES   REMARKS
KNOXVILLE      FAIR      76  60  57 SW5       30.34S                  
OAK RIDGE      FAIR      76  56  49 W6        30.36R                  
$$

TNZ083-085-099-211600-
SOUTHEAST TENNESSEE
  
CITY           SKY/WX    TMP DP  RH WIND       PRES   REMARKS
CHATTANOOGA    FAIR      77  60  55 SW5       30.34S                  
$$

SKY/WX REPORTED AS FAIR MEANS FEW OR NO CLOUDS BELOW
12 THOUSAND FEET.